Chiang Mai, Thailand

10:43 PM +07 on April 23, 2018 (GMT +0700)
Chiang Mai International

Weather History for VTCC - June, 2013

Change the Weather History Date:

Monday, June 3, 2013

  Actual Average Record
Temperature  
Mean Temperature 85 °F -  
Max Temperature 93 °F 87 °F 97 °F (2014)
Min Temperature 77 °F 74 °F 73 °F (2004)
Cooling Degree Days 20    
Growing Degree Days 35 (Base 50)    
Moisture  
Dew Point 70 °F    
Average Humidity 64    
Maximum Humidity 89    
Minimum Humidity 44    
Precipitation  
Precipitation 0.00 in 0.18 in - ()
Sea Level Pressure  
Sea Level Pressure 29.75 in    
Wind  
Wind Speed 3 mph ()    
Max Wind Speed 13 mph    
Max Gust Speed -    
Visibility 6.2 miles    
Events Rain    
Averages and records for this station are not official NWS values.
T = Trace of Precipitation, MM = Missing Value Source: Averaged Metar Reports

Daily Weather History Graph

Daily Weather History Graph

Search for Another Location

Airport or City:

Astronomy

Jun. 03, 2013 Rise Set
Actual Time 5:46 AM +07 6:58 PM +07
Civil Twilight 5:22 AM +07 7:22 PM +07
Nautical Twilight 4:53 AM +07 7:50 PM +07
Astronomical Twilight 4:24 AM +07 8:20 PM +07
Moon 1:49 AM +07 (6/3) 2:30 PM +07 (6/3)
Length of Visible Light 14h 00m
Length of Day
13h 12m
Waning Crescent, 26% of the Moon is Illuminated
Jun 3
Waning Crescent
Jun 8
New
Jun 17
First Quarter
Jun 23
Full
Jun 30
Last Quarter

Hourly Weather History & Observations

Time (+07) Temp. Heat Index Dew Point Humidity Pressure Visibility Wind Dir Wind Speed Gust Speed Precip Events Conditions
12:00 AM 78.8 °F - 71.6 °F 78% 29.77 in 6.2 mi SSW 5.8 mph - N/A   Scattered Clouds
12:30 AM 78.8 °F - 69.8 °F 74% 29.77 in 6.2 mi South 6.9 mph - N/A   Scattered Clouds
1:00 AM 80 °F - 73 °F 74% 29.71 in 6 mi Calm Calm - -   Scattered Clouds
1:30 AM 78.8 °F - 69.8 °F 74% 29.74 in 6.2 mi Calm Calm - N/A   Scattered Clouds
2:00 AM 78.8 °F - 69.8 °F 74% 29.74 in 6.2 mi NW 1.2 mph - N/A   Scattered Clouds
2:30 AM 78.8 °F - 69.8 °F 74% 29.74 in 6.2 mi Calm Calm - N/A   Scattered Clouds
3:00 AM 78.8 °F - 69.8 °F 74% 29.74 in 6.2 mi Calm Calm - N/A   Scattered Clouds
3:30 AM 77.0 °F - 69.8 °F 78% 29.74 in 6.2 mi Calm Calm - N/A   Scattered Clouds
4:00 AM 77.0 °F - 69.8 °F 78% 29.74 in 6.2 mi Calm Calm - N/A   Scattered Clouds
4:30 AM 77.0 °F - 71.6 °F 83% 29.74 in 6.2 mi Calm Calm - N/A   Scattered Clouds
5:00 AM 77.0 °F - 71.6 °F 83% 29.74 in 6.2 mi Calm Calm - N/A   Scattered Clouds
5:30 AM 77.0 °F - 71.6 °F 83% 29.74 in 6.2 mi Calm Calm - N/A   Scattered Clouds
6:00 AM 78.8 °F - 71.6 °F 78% 29.74 in 6.2 mi Calm Calm - N/A   Mostly Cloudy
6:30 AM 78.8 °F - 71.6 °F 78% 29.77 in 6.2 mi North 6.9 mph - N/A   Mostly Cloudy
7:00 AM 80 °F - 74 °F 77% 29.74 in 6 mi Calm Calm - -   Partly Cloudy
7:00 AM 78.8 °F - 71.6 °F 78% 29.77 in 6.2 mi NNE 5.8 mph - N/A   Mostly Cloudy
7:30 AM 80.6 °F 83.9 °F 69.8 °F 70% 29.80 in 6.2 mi NNE 4.6 mph - N/A   Scattered Clouds
8:00 AM 82.4 °F 87.2 °F 71.6 °F 70% 29.80 in 6.2 mi NE 3.5 mph - N/A   Scattered Clouds
8:30 AM 82.4 °F 86.3 °F 69.8 °F 66% 29.80 in 6.2 mi NE 3.5 mph - N/A   Mostly Cloudy
9:00 AM 84.2 °F 88.4 °F 69.8 °F 62% 29.80 in 6.2 mi WNW 2.3 mph - N/A   Scattered Clouds
9:30 AM 86.0 °F 91.8 °F 71.6 °F 62% 29.80 in 6.2 mi Calm Calm - N/A   Scattered Clouds
10:00 AM 86.0 °F 90.4 °F 69.8 °F 58% 29.80 in 6.2 mi South 4.6 mph - N/A   Scattered Clouds
10:30 AM 87.8 °F 93.8 °F 71.6 °F 58% 29.80 in 6.2 mi South 5.8 mph - N/A   Scattered Clouds
11:00 AM 89.6 °F 94.7 °F 69.8 °F 52% 29.80 in 6.2 mi South 2.3 mph - N/A   Scattered Clouds
11:30 AM 89.6 °F 94.7 °F 69.8 °F 52% 29.80 in 6.2 mi SW 4.6 mph - N/A   Scattered Clouds
12:00 PM 89.6 °F 94.7 °F 69.8 °F 52% 29.77 in 6.2 mi SSW 8.1 mph - N/A   Scattered Clouds
12:30 PM 89.6 °F 93.4 °F 68.0 °F 49% 29.74 in 6.2 mi SSW 4.6 mph - N/A   Scattered Clouds
1:00 PM 93 °F - 74 °F 44% 29.68 in 7 mi East 3.5 mph - -   Partly Cloudy
1:00 PM 91.4 °F 96.8 °F 69.8 °F 49% 29.74 in 6.2 mi South 6.9 mph - N/A   Scattered Clouds
1:30 PM 91.4 °F 95.4 °F 68.0 °F 46% 29.71 in 6.2 mi SSE 6.9 mph - N/A   Scattered Clouds
2:00 PM 91.4 °F 95.4 °F 68.0 °F 46% 29.71 in 6.2 mi NNE 2.3 mph - N/A   Scattered Clouds
2:30 PM 91.4 °F 95.4 °F 68.0 °F 46% 29.68 in 6.2 mi SE 5.8 mph - N/A   Scattered Clouds
3:00 PM 91.4 °F 95.4 °F 68.0 °F 46% 29.68 in 6.2 mi SE 6.9 mph - N/A   Scattered Clouds
3:30 PM 91.4 °F 95.4 °F 68.0 °F 46% 29.65 in 6.2 mi South 3.5 mph - N/A   Scattered Clouds
4:00 PM 87.8 °F 92.6 °F 69.8 °F 55% 29.65 in 6.2 mi ENE 5.8 mph - N/A   Scattered Clouds
4:30 PM 89.6 °F 94.7 °F 69.8 °F 52% 29.65 in 6.2 mi North 8.1 mph - N/A   Scattered Clouds
5:00 PM 89.6 °F 94.7 °F 69.8 °F 52% 29.65 in 6.2 mi NNE 6.9 mph - N/A   Scattered Clouds
5:30 PM 89.6 °F 94.7 °F 69.8 °F 52% 29.65 in 6.2 mi NNE 3.5 mph - N/A   Scattered Clouds
6:00 PM 89.6 °F 94.7 °F 69.8 °F 52% 29.68 in 6.2 mi Calm Calm - N/A   Scattered Clouds
6:30 PM 89.6 °F 94.7 °F 69.8 °F 52% 29.68 in 6.2 mi NNW 1.2 mph - N/A   Scattered Clouds
7:00 PM 89 °F - 73 °F 51% 29.64 in 7 mi South 2.3 mph - -   Partly Cloudy
7:00 PM 86.0 °F 89.4 °F 68.0 °F 55% 29.71 in 6.2 mi NNW 10.4 mph - N/A   Scattered Clouds
7:30 PM 86.0 °F 89.4 °F 68.0 °F 55% 29.74 in 6.2 mi WSW 8.1 mph - N/A   Scattered Clouds
8:00 PM 86.0 °F 89.4 °F 68.0 °F 55% 29.74 in 6.2 mi SW 5.8 mph - N/A   Scattered Clouds
8:30 PM 86.0 °F 89.4 °F 68.0 °F 55% 29.77 in 6.2 mi NW 2.3 mph - N/A   Scattered Clouds
9:00 PM 82.4 °F 86.3 °F 69.8 °F 66% 29.80 in 6.2 mi ENE 8.1 mph - N/A   Partly Cloudy
9:30 PM 80.6 °F 83.9 °F 69.8 °F 70% 29.80 in 6.2 mi NNE 9.2 mph - N/A   Partly Cloudy
10:00 PM 80.6 °F 83.9 °F 69.8 °F 70% 29.83 in 6.2 mi NNE 6.9 mph - N/A   Partly Cloudy
10:30 PM 80.6 °F 83.2 °F 68.0 °F 65% 29.83 in 6.2 mi NNE 8.1 mph - N/A   Scattered Clouds
11:00 PM 77.0 °F - 73.4 °F 89% 29.86 in 2.5 mi SSW 12.7 mph - N/A Rain Rain
11:30 PM 77.0 °F - 71.6 °F 83% 29.83 in 6.2 mi WSW 10.4 mph - N/A   Scattered Clouds